Torna al catalogo

STARLINK-11655

AttivoComunicazioniVLEO
NORAD 63675·PAYLOAD·🇺🇸 United States

Lanciato Apr 28, 2025 da Cape Canaveral Space Force Station

Loading…

Prossimi Passaggi (prossime 24 ore)

TLE

AggiornatoSource: CelesTrak SupGP

Epoca: Sep 15, 2026, 02:17 UTC

1 63675C 25085M   26258.09562500 -.00054481  00000+0 -42312-3 0  2583
2 63675  43.0005 216.5294 0001474 267.4154  62.7935 15.70867694    11

Traccia STARLINK-11655 in tempo reale con AllMySat

Download on the App Store